Regional Weather Roundup
Issued by NWS Albany, NY

Home | Current Version | Previous Version | Text Only | Print | Product List | Glossary On
Versions: 1 2 3 4 5 6 7 8 9 10 11 12 13 14 15 16 17 18 19 20 21 22 23 24 25 26 27 28 29 30 31 32 33 34 35 36 37 38 39 40 41 42 43 44 45 46 47 48 49 50
000
ASUS41 KALY 012110
RWRALY

NEW YORK STATE HOURLY WEATHER ROUNDUP
NATIONAL WEATHER SERVICE ALBANY NY
500 PM EDT TUE SEP 01 2015

NOTE: "FAIR" INDICATES FEW OR NO CLOUDS BELOW 12,000 FEET WITH NO
SIGNIFICANT WEATHER AND/OR NO OBSTRUCTIONS TO VISIBILITY.

NYZ032-033-038>043-046>054-057>066-NYZ062>081-012200-
EAST


CITY           SKY/WX    TMP DP  RH WIND       PRES   REMARKS
ALBANY         MOSUNNY   86  61  42 VRB5      30.01F
GLENS FALLS    SUNNY     85  60  42 S8        30.00F
POUGHKEEPSIE   SUNNY     86  59  39 CALM      30.01F
NEWBURGH       SUNNY     84  63  48 W6        30.06R
MONTGOMERY     SUNNY     87  62  43 NE5       30.02F
WHITE PLAINS   MOSUNNY   85  60  42 SE5       30.01F
ISLIP          MOSUNNY   81  61  50 SE8       30.01F
NEW YORK CITY  MOSUNNY   85  63  47 CALM      30.00F
CENTRAL PARK   SUNNY     85  64  49 VRB3      30.04S
$$

NYZ005>009-017-018-044>046-055-056-012200-
CENTRAL


CITY           SKY/WX    TMP DP  RH WIND       PRES   REMARKS
FULTON         MOSUNNY   80  68  66 CALM      30.04F
SYRACUSE       MOSUNNY   81  68  64 CALM      30.04S
ROME           MOSUNNY   77  68  73 NW8       30.06F
ELMIRA         SUNNY     84  65  52 S3        30.04F
BINGHAMTON     MOSUNNY   78  65  63 SE6       30.09S
MONTICELLO     SUNNY     81  61  50 NW5       30.09S
$$

NYZ026>034-041>043-012200-
NORTH


CITY           SKY/WX    TMP DP  RH WIND       PRES   REMARKS
WATERTOWN      PTSUNNY   76  67  73 SW10      30.04S HAZE
FORT DRUM      NOT AVBL
MASSENA        MOSUNNY   82  66  58 SW8G18    30.00S
SARANAC LAKE   SUNNY     81  57  43 SW7       30.05S
PLATTSBURGH    SUNNY     80  60  50 SE9       29.98F
$$

NYZ001>004-010>016-019>021-012200-
WEST


CITY           SKY/WX    TMP DP  RH WIND       PRES   REMARKS
NIAGARA FALLS  SUNNY     81  65  58 SW12      30.04S
BUFFALO        MOSUNNY   80  66  62 SW14      30.05F
DUNKIRK        SUNNY     80  69  69 W8        30.07F
JAMESTOWN      MOSUNNY   81  63  54 W8        30.11S
WELLSVILLE     SUNNY     82  60  47 NW6       30.13F
ROCHESTER      MOSUNNY   83  68  60 NE9       30.04S
PENN YAN       SUNNY     83  65  54 CALM      30.06F
$$

             KEY
       WCI = WIND CHILL INDEX
       VSB = VISIBILITY
       HX  = HEAT INDEX
$$



USA.gov is the U.S. government's official web portal to all federal, state and local government web resources and services.